PIMOHWEATHER Station Historical Data
Daily Summary for February 16, 2020 Units:  Metric    English   Both
Daily Weekly Monthly Yearly
  High: Low: Average:
Temperature: 33.0 °C 23.0 °C 28.3 °C
Dew Point: 25.0 °C 20.0 °C 22.6 °C
Humidity: 85% 60% 72%
Wind Speed: 19km/h 0km/h 8.9km/h
Wind Gust: 24km/h - -
Wind- - SE
Pressure: 1015.6 hPa 1011.5 hPa -
Precipitation: 0.00 mm    
 
 
Tabular Data for February 16, 2020
Time Temperature Dew Point Pressure Wind Wind Speed Wind Gust Humidity Rainfall Rate (Hourly) solar
00:04 26.0 °C 21.0 °C 1013.9 hPa East 5 km/h 8 km/h 72% 0.00 mm 0.00 W/m2
00:09 26.0 °C 21.0 °C 1013.9 hPa NE 4 km/h 4 km/h 72% 0.00 mm 0.00 W/m2
00:14 26.0 °C 21.0 °C 1013.9 hPa East 5 km/h 8 km/h 72% 0.00 mm 0.00 W/m2
00:19 26.0 °C 21.0 °C 1013.9 hPa ESE 3 km/h 4 km/h 72% 0.00 mm 0.00 W/m2
00:24 26.0 °C 21.0 °C 1013.9 hPa NE 3 km/h 4 km/h 73% 0.00 mm 0.00 W/m2
00:29 26.0 °C 21.0 °C 1013.9 hPa NE 5 km/h 8 km/h 73% 0.00 mm 0.00 W/m2
00:34 26.0 °C 21.0 °C 1013.9 hPa NNE 2 km/h 8 km/h 73% 0.00 mm 0.00 W/m2
00:39 26.0 °C 21.0 °C 1013.6 hPa NE 3 km/h 4 km/h 73% 0.00 mm 0.00 W/m2
00:44 26.0 °C 21.0 °C 1013.9 hPa NE 2 km/h 4 km/h 73% 0.00 mm 0.00 W/m2
00:49 26.0 °C 21.0 °C 1013.9 hPa ENE 1 km/h 4 km/h 74% 0.00 mm 0.00 W/m2
00:54 26.0 °C 21.0 °C 1013.6 hPa ENE 1 km/h 4 km/h 73% 0.00 mm 0.00 W/m2
00:59 26.0 °C 21.0 °C 1013.6 hPa East 3 km/h 4 km/h 73% 0.00 mm 0.00 W/m2
01:04 26.0 °C 20.0 °C 1013.6 hPa ENE 3 km/h 4 km/h 72% 0.00 mm 0.00 W/m2
01:09 26.0 °C 20.0 °C 1013.6 hPa Calm     72% 0.00 mm 0.00 W/m2
01:14 26.0 °C 21.0 °C 1013.6 hPa North 4 km/h 4 km/h 74% 0.00 mm 0.00 W/m2
01:19 26.0 °C 21.0 °C 1013.6 hPa Calm     74% 0.00 mm 0.00 W/m2
01:24 26.0 °C 21.0 °C 1013.6 hPa North 3 km/h 4 km/h 74% 0.00 mm 0.00 W/m2
01:29 26.0 °C 21.0 °C 1013.6 hPa NNE 5 km/h 8 km/h 74% 0.00 mm 0.00 W/m2
01:34 26.0 °C 21.0 °C 1013.6 hPa North 4 km/h 8 km/h 74% 0.00 mm 0.00 W/m2
01:39 25.0 °C 21.0 °C 1013.6 hPa North 3 km/h 4 km/h 75% 0.00 mm 0.00 W/m2
01:44 25.0 °C 21.0 °C 1013.6 hPa NNE 3 km/h 4 km/h 75% 0.00 mm 0.00 W/m2
01:49 25.0 °C 21.0 °C 1013.6 hPa NE 1 km/h 4 km/h 75% 0.00 mm 0.00 W/m2
01:54 25.0 °C 20.0 °C 1013.6 hPa Calm   4 km/h 74% 0.00 mm 0.00 W/m2
01:59 26.0 °C 20.0 °C 1013.6 hPa Calm     73% 0.00 mm 0.00 W/m2
02:04 26.0 °C 21.0 °C 1013.6 hPa NNE 3 km/h 4 km/h 75% 0.00 mm 0.00 W/m2
02:09 25.0 °C 21.0 °C 1013.6 hPa NNE 5 km/h 8 km/h 75% 0.00 mm 0.00 W/m2
02:14 25.0 °C 21.0 °C 1013.6 hPa North 5 km/h 8 km/h 75% 0.00 mm 0.00 W/m2
02:19 25.0 °C 21.0 °C 1013.2 hPa NNE 5 km/h 8 km/h 75% 0.00 mm 0.00 W/m2
02:24 25.0 °C 21.0 °C 1013.2 hPa North 7 km/h 8 km/h 76% 0.00 mm 0.00 W/m2
02:29 25.0 °C 21.0 °C 1013.2 hPa North 7 km/h 8 km/h 76% 0.00 mm 0.00 W/m2
02:34 25.0 °C 21.0 °C 1013.6 hPa NNE 6 km/h 8 km/h 76% 0.00 mm 0.00 W/m2
02:39 25.0 °C 21.0 °C 1013.6 hPa North 6 km/h 8 km/h 76% 0.00 mm 0.00 W/m2
02:44 25.0 °C 20.0 °C 1013.2 hPa North 5 km/h 8 km/h 76% 0.00 mm 0.00 W/m2
02:49 25.0 °C 21.0 °C 1013.2 hPa North 6 km/h 12 km/h 77% 0.00 mm 0.00 W/m2
02:54 25.0 °C 21.0 °C 1013.2 hPa North 10 km/h 16 km/h 78% 0.00 mm 0.00 W/m2
02:59 25.0 °C 21.0 °C 1013.2 hPa North 10 km/h 12 km/h 78% 0.00 mm 0.00 W/m2
03:04 25.0 °C 21.0 °C 1013.2 hPa NNE 8 km/h 12 km/h 79% 0.00 mm 0.00 W/m2
03:09 25.0 °C 21.0 °C 1013.2 hPa North 8 km/h 12 km/h 78% 0.00 mm 0.00 W/m2
03:14 25.0 °C 20.0 °C 1013.2 hPa North 6 km/h 8 km/h 78% 0.00 mm 0.00 W/m2
03:19 25.0 °C 20.0 °C 1013.2 hPa North 6 km/h 8 km/h 78% 0.00 mm 0.00 W/m2
03:24 25.0 °C 20.0 °C 1013.2 hPa NNE 9 km/h 12 km/h 78% 0.00 mm 0.00 W/m2
03:29 24.0 °C 20.0 °C 1013.2 hPa North 8 km/h 12 km/h 78% 0.00 mm 0.00 W/m2
03:34 24.0 °C 21.0 °C 1013.2 hPa North 8 km/h 12 km/h 79% 0.00 mm 0.00 W/m2
03:39 24.0 °C 21.0 °C 1013.2 hPa North 9 km/h 12 km/h 79% 0.00 mm 0.00 W/m2
03:44 24.0 °C 20.0 °C 1013.2 hPa North 9 km/h 12 km/h 78% 0.00 mm 0.00 W/m2
03:49 24.0 °C 21.0 °C 1013.2 hPa North 10 km/h 12 km/h 79% 0.00 mm 0.00 W/m2
03:54 24.0 °C 21.0 °C 1013.2 hPa North 7 km/h 8 km/h 79% 0.00 mm 0.00 W/m2
03:59 24.0 °C 21.0 °C 1013.2 hPa North 4 km/h 8 km/h 79% 0.00 mm 0.00 W/m2
04:04 24.0 °C 21.0 °C 1013.2 hPa North 7 km/h 8 km/h 79% 0.00 mm 0.00 W/m2
04:09 24.0 °C 20.0 °C 1013.2 hPa North 7 km/h 12 km/h 79% 0.00 mm 0.00 W/m2
04:14 24.0 °C 20.0 °C 1013.2 hPa NNE 10 km/h 12 km/h 79% 0.00 mm 0.00 W/m2
04:19 24.0 °C 20.0 °C 1013.2 hPa North 13 km/h 16 km/h 79% 0.00 mm 0.00 W/m2
04:24 24.0 °C 20.0 °C 1013.6 hPa North 13 km/h 16 km/h 79% 0.00 mm 0.00 W/m2
04:29 24.0 °C 20.0 °C 1013.6 hPa North 10 km/h 12 km/h 79% 0.00 mm 0.00 W/m2
04:34 24.0 °C 20.0 °C 1013.2 hPa NNE 10 km/h 12 km/h 79% 0.00 mm 0.00 W/m2
04:39 24.0 °C 20.0 °C 1013.6 hPa North 9 km/h 12 km/h 80% 0.00 mm 0.00 W/m2
04:44 24.0 °C 20.0 °C 1013.6 hPa North 12 km/h 12 km/h 80% 0.00 mm 0.00 W/m2
04:49 24.0 °C 20.0 °C 1013.6 hPa NNE 14 km/h 16 km/h 81% 0.00 mm 0.00 W/m2
04:54 24.0 °C 20.0 °C 1013.6 hPa NNE 13 km/h 16 km/h 82% 0.00 mm 0.00 W/m2
04:59 24.0 °C 21.0 °C 1013.6 hPa North 12 km/h 16 km/h 82% 0.00 mm 0.00 W/m2
05:04 24.0 °C 21.0 °C 1013.6 hPa North 15 km/h 16 km/h 82% 0.00 mm 0.00 W/m2
05:09 24.0 °C 21.0 °C 1013.6 hPa NNE 13 km/h 16 km/h 83% 0.00 mm 0.00 W/m2
05:14 24.0 °C 21.0 °C 1013.6 hPa NNE 15 km/h 16 km/h 83% 0.00 mm 0.00 W/m2
05:19 23.0 °C 21.0 °C 1013.6 hPa North 13 km/h 16 km/h 83% 0.00 mm 0.00 W/m2
05:24 23.0 °C 20.0 °C 1014.2 hPa North 10 km/h 12 km/h 83% 0.00 mm 0.00 W/m2
05:29 23.0 °C 20.0 °C 1014.2 hPa North 9 km/h 12 km/h 83% 0.00 mm 0.00 W/m2
05:34 23.0 °C 20.0 °C 1014.2 hPa North 11 km/h 12 km/h 83% 0.00 mm 0.00 W/m2
05:39 23.0 °C 20.0 °C 1014.2 hPa North 10 km/h 16 km/h 83% 0.00 mm 0.00 W/m2
05:44 23.0 °C 20.0 °C 1014.2 hPa NNE 9 km/h 12 km/h 83% 0.00 mm 0.00 W/m2
05:49 23.0 °C 21.0 °C 1014.2 hPa North 10 km/h 12 km/h 84% 0.00 mm 0.00 W/m2
05:54 23.0 °C 21.0 °C 1014.2 hPa North 9 km/h 12 km/h 84% 0.00 mm 0.00 W/m2
05:59 23.0 °C 21.0 °C 1014.2 hPa NNE 13 km/h 16 km/h 84% 0.00 mm 0.00 W/m2
06:04 23.0 °C 21.0 °C 1014.2 hPa NNE 13 km/h 16 km/h 84% 0.00 mm 0.00 W/m2
06:09 23.0 °C 21.0 °C 1014.2 hPa North 7 km/h 8 km/h 84% 0.00 mm 0.00 W/m2
06:14 23.0 °C 21.0 °C 1014.2 hPa North 11 km/h 12 km/h 85% 0.00 mm 0.00 W/m2
06:19 23.0 °C 21.0 °C 1014.2 hPa North 7 km/h 8 km/h 85% 0.00 mm 1.13 W/m2
06:24 23.0 °C 21.0 °C 1014.2 hPa NNE 8 km/h 12 km/h 85% 0.00 mm 4.53 W/m2
06:29 23.0 °C 21.0 °C 1014.6 hPa North 10 km/h 12 km/h 85% 0.00 mm 8.25 W/m2
06:34 23.0 °C 21.0 °C 1014.6 hPa NNE 10 km/h 12 km/h 85% 0.00 mm 12.29 W/m2
06:39 23.0 °C 21.0 °C 1014.6 hPa NNE 9 km/h 12 km/h 85% 0.00 mm 18.44 W/m2
06:44 23.0 °C 21.0 °C 1014.6 hPa North 5 km/h 8 km/h 85% 0.00 mm 23.64 W/m2
06:49 23.0 °C 21.0 °C 1015.2 hPa NNE 10 km/h 12 km/h 85% 0.00 mm 28.25 W/m2
06:54 23.0 °C 21.0 °C 1015.2 hPa NNE 5 km/h 12 km/h 84% 0.00 mm 31.18 W/m2
06:59 24.0 °C 21.0 °C 1015.2 hPa NNE 8 km/h 12 km/h 84% 0.00 mm 34.30 W/m2
07:04 24.0 °C 21.0 °C 1015.2 hPa NNE 9 km/h 12 km/h 84% 0.00 mm 38.45 W/m2
07:09 24.0 °C 21.0 °C 1015.2 hPa North 8 km/h 12 km/h 83% 0.00 mm 41.89 W/m2
07:14 24.0 °C 21.0 °C 1015.2 hPa North 5 km/h 8 km/h 83% 0.00 mm 46.21 W/m2
07:19 25.0 °C 21.0 °C 1015.2 hPa Calm   4 km/h 82% 0.00 mm 50.95 W/m2
07:24 26.0 °C 21.0 °C 1015.2 hPa SW 1 km/h 4 km/h 81% 0.00 mm 55.24 W/m2
07:29 26.0 °C 22.0 °C 1015.2 hPa NNE 6 km/h 8 km/h 78% 0.00 mm 61.98 W/m2
07:34 27.0 °C 22.0 °C 1015.2 hPa ESE 1 km/h 4 km/h 78% 0.00 mm 69.84 W/m2
07:39 27.0 °C 22.0 °C 1015.2 hPa SE 4 km/h 4 km/h 75% 0.00 mm 82.03 W/m2
07:44 28.0 °C 22.0 °C 1015.2 hPa Calm     73% 0.00 mm 90.55 W/m2
07:49 28.0 °C 22.0 °C 1015.2 hPa Calm     72% 0.00 mm 98.82 W/m2
07:54 28.0 °C 22.0 °C 1015.2 hPa Calm     73% 0.00 mm 106.72 W/m2
07:59 28.0 °C 22.0 °C 1015.2 hPa NNE 5 km/h 8 km/h 73% 0.00 mm 115.99 W/m2
08:04 28.0 °C 22.0 °C 1015.2 hPa North 5 km/h 8 km/h 73% 0.00 mm 124.39 W/m2
08:09 27.0 °C 22.0 °C 1015.2 hPa North 5 km/h 8 km/h 73% 0.00 mm 134.76 W/m2
08:14 28.0 °C 22.0 °C 1015.6 hPa North 5 km/h 8 km/h 73% 0.00 mm 145.67 W/m2
08:19 28.0 °C 22.0 °C 1015.6 hPa North 5 km/h 8 km/h 72% 0.00 mm 154.73 W/m2
08:24 29.0 °C 22.0 °C 1015.6 hPa NNE 5 km/h 8 km/h 72% 0.00 mm 170.92 W/m2
08:29 29.0 °C 23.0 °C 1015.2 hPa SE 4 km/h 8 km/h 68% 0.00 mm 178.53 W/m2
08:34 30.0 °C 23.0 °C 1015.2 hPa ESE 4 km/h 8 km/h 66% 0.00 mm 191.40 W/m2
08:39 30.0 °C 22.0 °C 1015.6 hPa SSE 6 km/h 8 km/h 64% 0.00 mm 204.52 W/m2
08:44 31.0 °C 22.0 °C 1015.6 hPa SSE 6 km/h 8 km/h 63% 0.00 mm 217.12 W/m2
08:49 31.0 °C 22.0 °C 1015.6 hPa NNE 4 km/h 4 km/h 62% 0.00 mm 229.28 W/m2
08:54 31.0 °C 22.0 °C 1015.6 hPa SE 8 km/h 8 km/h 62% 0.00 mm 243.18 W/m2
08:59 31.0 °C 22.0 °C 1015.6 hPa SE 3 km/h 4 km/h 61% 0.00 mm 255.48 W/m2
09:04 31.0 °C 22.0 °C 1015.6 hPa SE 14 km/h 16 km/h 62% 0.00 mm 264.05 W/m2
09:09 30.0 °C 22.0 °C 1015.6 hPa SE 8 km/h 12 km/h 62% 0.00 mm 271.04 W/m2
09:14 31.0 °C 22.0 °C 1015.6 hPa ESE 8 km/h 8 km/h 62% 0.00 mm 277.75 W/m2
09:19 31.0 °C 23.0 °C 1015.6 hPa SE 8 km/h 8 km/h 60% 0.00 mm 293.48 W/m2
09:24 31.0 °C 23.0 °C 1015.6 hPa SE 13 km/h 16 km/h 64% 0.00 mm 301.51 W/m2
09:29 31.0 °C 24.0 °C 1015.6 hPa SSW 10 km/h 16 km/h 70% 0.00 mm 299.01 W/m2
09:34 31.0 °C 24.0 °C 1015.6 hPa South 6 km/h 8 km/h 70% 0.00 mm 307.84 W/m2
09:39 30.0 °C 24.0 °C 1015.6 hPa South 9 km/h 12 km/h 71% 0.00 mm 310.75 W/m2
09:44 30.0 °C 25.0 °C 1015.2 hPa South 12 km/h 16 km/h 71% 0.00 mm 318.09 W/m2
09:49 30.0 °C 24.0 °C 1015.2 hPa SSW 11 km/h 16 km/h 69% 0.00 mm 321.40 W/m2
09:54 31.0 °C 24.0 °C 1015.2 hPa SSW 9 km/h 12 km/h 69% 0.00 mm 329.69 W/m2
09:59 30.0 °C 24.0 °C 1015.2 hPa SSW 10 km/h 12 km/h 69% 0.00 mm 342.17 W/m2
10:04 30.0 °C 24.0 °C 1015.2 hPa South 11 km/h 16 km/h 69% 0.00 mm 346.26 W/m2
10:09 30.0 °C 24.0 °C 1015.2 hPa South 8 km/h 12 km/h 68% 0.00 mm 351.44 W/m2
10:14 30.0 °C 24.0 °C 1015.2 hPa SSW 9 km/h 12 km/h 68% 0.00 mm 365.83 W/m2
10:19 31.0 °C 24.0 °C 1014.9 hPa South 7 km/h 8 km/h 67% 0.00 mm 360.54 W/m2
10:24 31.0 °C 24.0 °C 1014.9 hPa South 8 km/h 12 km/h 67% 0.00 mm 383.37 W/m2
10:29 31.0 °C 24.0 °C 1014.9 hPa South 9 km/h 12 km/h 67% 0.00 mm 365.51 W/m2
10:34 31.0 °C 24.0 °C 1014.9 hPa SW 6 km/h 8 km/h 66% 0.00 mm 377.65 W/m2
10:38 31.0 °C 24.0 °C 1014.9 hPa WNW 10 km/h 16 km/h 68% 0.00 mm 386.01 W/m2
10:44 30.0 °C 24.0 °C 1014.9 hPa South 9 km/h 12 km/h 68% 0.00 mm 395.78 W/m2
10:49 30.0 °C 24.0 °C 1014.9 hPa SSE 9 km/h 12 km/h 68% 0.00 mm 397.56 W/m2
10:54 31.0 °C 24.0 °C 1014.6 hPa South 8 km/h 8 km/h 67% 0.00 mm 421.91 W/m2
10:59 31.0 °C 24.0 °C 1014.6 hPa WNW 13 km/h 20 km/h 67% 0.00 mm 420.73 W/m2
11:04 31.0 °C 24.0 °C 1014.6 hPa SSW 10 km/h 16 km/h 67% 0.00 mm 408.48 W/m2
11:09 31.0 °C 24.0 °C 1014.6 hPa SSW 11 km/h 16 km/h 68% 0.00 mm 415.79 W/m2
11:14 30.0 °C 24.0 °C 1014.6 hPa South 15 km/h 20 km/h 69% 0.00 mm 387.09 W/m2
11:19 30.0 °C 24.0 °C 1014.6 hPa SW 10 km/h 16 km/h 69% 0.00 mm 418.19 W/m2
11:24 31.0 °C 24.0 °C 1014.2 hPa WSW 9 km/h 12 km/h 68% 0.00 mm 431.79 W/m2
11:29 31.0 °C 24.0 °C 1014.2 hPa South 12 km/h 16 km/h 66% 0.00 mm 452.20 W/m2
11:34 31.0 °C 24.0 °C 1014.2 hPa West 8 km/h 8 km/h 66% 0.00 mm 448.24 W/m2
11:39 31.0 °C 24.0 °C 1014.2 hPa SSW 14 km/h 20 km/h 67% 0.00 mm 442.61 W/m2
11:44 31.0 °C 24.0 °C 1014.2 hPa SSE 10 km/h 12 km/h 66% 0.00 mm 433.53 W/m2
11:49 32.0 °C 24.0 °C 1014.2 hPa SSW 9 km/h 12 km/h 65% 0.00 mm 443.83 W/m2
11:54 31.0 °C 24.0 °C 1014.2 hPa SW 10 km/h 12 km/h 65% 0.00 mm 441.65 W/m2
11:59 31.0 °C 24.0 °C 1014.2 hPa WNW 13 km/h 16 km/h 66% 0.00 mm 436.03 W/m2
12:04 31.0 °C 24.0 °C 1013.9 hPa NW 13 km/h 20 km/h 68% 0.00 mm 437.15 W/m2
12:09 31.0 °C 24.0 °C 1013.6 hPa NW 13 km/h 16 km/h 67% 0.00 mm 436.37 W/m2
12:14 31.0 °C 24.0 °C 1013.6 hPa SSW 10 km/h 12 km/h 66% 0.00 mm 437.69 W/m2
12:19 31.0 °C 24.0 °C 1013.6 hPa SW 9 km/h 12 km/h 65% 0.00 mm 438.69 W/m2
12:24 32.0 °C 24.0 °C 1013.6 hPa South 11 km/h 16 km/h 64% 0.00 mm 444.81 W/m2
12:29 32.0 °C 24.0 °C 1013.2 hPa SSW 9 km/h 12 km/h 63% 0.00 mm 441.63 W/m2
12:34 32.0 °C 24.0 °C 1013.2 hPa NE 9 km/h 12 km/h 62% 0.00 mm 448.06 W/m2
12:39 32.0 °C 24.0 °C 1013.2 hPa WNW 14 km/h 16 km/h 64% 0.00 mm 446.64 W/m2
12:44 32.0 °C 24.0 °C 1013.2 hPa West 11 km/h 16 km/h 64% 0.00 mm 462.25 W/m2
12:49 32.0 °C 24.0 °C 1013.2 hPa West 14 km/h 16 km/h 64% 0.00 mm 451.95 W/m2
12:54 32.0 °C 24.0 °C 1013.2 hPa WNW 10 km/h 16 km/h 65% 0.00 mm 439.45 W/m2
12:59 32.0 °C 24.0 °C 1012.9 hPa SSE 12 km/h 16 km/h 65% 0.00 mm 450.66 W/m2
13:04 32.0 °C 24.0 °C 1012.9 hPa WSW 12 km/h 16 km/h 63% 0.00 mm 468.96 W/m2
13:09 32.0 °C 24.0 °C 1012.9 hPa WNW 9 km/h 16 km/h 64% 0.00 mm 476.94 W/m2
13:14 32.0 °C 24.0 °C 1012.9 hPa WSW 14 km/h 20 km/h 64% 0.00 mm 475.86 W/m2
13:19 32.0 °C 24.0 °C 1012.9 hPa SSW 10 km/h 12 km/h 64% 0.00 mm 454.96 W/m2
13:24 32.0 °C 24.0 °C 1012.9 hPa West 8 km/h 12 km/h 63% 0.00 mm 479.80 W/m2
13:29 32.0 °C 24.0 °C 1012.5 hPa WSW 14 km/h 16 km/h 65% 0.00 mm 448.82 W/m2
13:34 32.0 °C 25.0 °C 1012.5 hPa South 10 km/h 16 km/h 64% 0.00 mm 464.02 W/m2
13:39 32.0 °C 24.0 °C 1012.5 hPa SSE 10 km/h 16 km/h 65% 0.00 mm 458.14 W/m2
13:44 32.0 °C 24.0 °C 1012.5 hPa West 18 km/h 20 km/h 65% 0.00 mm 456.58 W/m2
13:49 32.0 °C 24.0 °C 1012.5 hPa WSW 11 km/h 20 km/h 65% 0.00 mm 452.27 W/m2
13:54 32.0 °C 25.0 °C 1012.5 hPa NW 19 km/h 24 km/h 66% 0.00 mm 447.39 W/m2
13:59 32.0 °C 25.0 °C 1012.2 hPa West 15 km/h 24 km/h 68% 0.00 mm 444.15 W/m2
14:04 32.0 °C 24.0 °C 1012.2 hPa SW 15 km/h 20 km/h 65% 0.00 mm 445.32 W/m2
14:09 31.0 °C 24.0 °C 1012.2 hPa WNW 15 km/h 20 km/h 65% 0.00 mm 452.91 W/m2
14:14 32.0 °C 24.0 °C 1012.2 hPa West 11 km/h 20 km/h 66% 0.00 mm 471.99 W/m2
14:19 32.0 °C 24.0 °C 1012.2 hPa SSW 10 km/h 12 km/h 64% 0.00 mm 463.87 W/m2
14:24 32.0 °C 24.0 °C 1012.2 hPa WNW 16 km/h 20 km/h 65% 0.00 mm 441.34 W/m2
14:29 32.0 °C 24.0 °C 1012.2 hPa WNW 10 km/h 12 km/h 64% 0.00 mm 437.40 W/m2
14:34 32.0 °C 24.0 °C 1011.9 hPa WSW 15 km/h 16 km/h 64% 0.00 mm 434.53 W/m2
14:39 32.0 °C 24.0 °C 1011.9 hPa West 9 km/h 16 km/h 64% 0.00 mm 423.54 W/m2
14:44 32.0 °C 24.0 °C 1011.9 hPa WNW 10 km/h 16 km/h 63% 0.00 mm 416.53 W/m2
14:49 33.0 °C 24.0 °C 1011.9 hPa WSW 12 km/h 16 km/h 62% 0.00 mm 417.38 W/m2
14:54 32.0 °C 24.0 °C 1011.9 hPa West 15 km/h 20 km/h 64% 0.00 mm 415.55 W/m2
14:59 32.0 °C 24.0 °C 1011.9 hPa SW 10 km/h 12 km/h 64% 0.00 mm 402.82 W/m2
15:04 32.0 °C 24.0 °C 1011.9 hPa WNW 9 km/h 16 km/h 63% 0.00 mm 398.27 W/m2
15:09 32.0 °C 24.0 °C 1011.9 hPa WNW 11 km/h 16 km/h 64% 0.00 mm 397.07 W/m2
15:14 32.0 °C 24.0 °C 1011.5 hPa NW 12 km/h 16 km/h 64% 0.00 mm 376.69 W/m2
15:19 32.0 °C 24.0 °C 1011.5 hPa NW 15 km/h 16 km/h 63% 0.00 mm 377.55 W/m2
15:24 32.0 °C 24.0 °C 1011.5 hPa WSW 15 km/h 20 km/h 63% 0.00 mm 373.27 W/m2
15:29 32.0 °C 24.0 °C 1011.5 hPa WNW 13 km/h 20 km/h 63% 0.00 mm 374.12 W/m2
15:34 33.0 °C 24.0 °C 1011.5 hPa WSW 9 km/h 12 km/h 62% 0.00 mm 370.84 W/m2
15:39 33.0 °C 24.0 °C 1011.5 hPa South 10 km/h 16 km/h 60% 0.00 mm 349.31 W/m2
15:44 33.0 °C 24.0 °C 1011.5 hPa South 5 km/h 8 km/h 60% 0.00 mm 354.70 W/m2
15:49 33.0 °C 24.0 °C 1011.5 hPa South 7 km/h 8 km/h 61% 0.00 mm 346.56 W/m2
15:54 33.0 °C 24.0 °C 1011.5 hPa South 10 km/h 16 km/h 61% 0.00 mm 336.88 W/m2
15:59 33.0 °C 24.0 °C 1011.5 hPa SW 6 km/h 16 km/h 61% 0.00 mm 331.31 W/m2
16:04 33.0 °C 24.0 °C 1011.5 hPa WSW 8 km/h 12 km/h 60% 0.00 mm 334.68 W/m2
16:09 33.0 °C 25.0 °C 1011.9 hPa South 8 km/h 12 km/h 60% 0.00 mm 331.77 W/m2
16:14 33.0 °C 25.0 °C 1011.5 hPa South 9 km/h 12 km/h 60% 0.00 mm 294.34 W/m2
16:19 33.0 °C 24.0 °C 1011.9 hPa South 8 km/h 12 km/h 60% 0.00 mm 277.89 W/m2
16:24 33.0 °C 25.0 °C 1011.5 hPa SSE 5 km/h 8 km/h 60% 0.00 mm 268.89 W/m2
16:29 33.0 °C 24.0 °C 1011.9 hPa SE 11 km/h 16 km/h 61% 0.00 mm 271.73 W/m2
16:34 33.0 °C 25.0 °C 1011.9 hPa SE 15 km/h 16 km/h 61% 0.00 mm 258.05 W/m2
16:39 33.0 °C 24.0 °C 1011.9 hPa SE 14 km/h 16 km/h 63% 0.00 mm 244.37 W/m2
16:44 33.0 °C 25.0 °C 1011.9 hPa SSE 12 km/h 16 km/h 62% 0.00 mm 238.01 W/m2
16:49 33.0 °C 24.0 °C 1011.9 hPa SE 15 km/h 16 km/h 62% 0.00 mm 146.20 W/m2
16:54 32.0 °C 24.0 °C 1012.2 hPa SE 15 km/h 16 km/h 64% 0.00 mm 163.09 W/m2
16:59 32.0 °C 24.0 °C 1012.2 hPa SE 16 km/h 20 km/h 64% 0.00 mm 159.27 W/m2
17:04 32.0 °C 24.0 °C 1012.2 hPa SE 15 km/h 20 km/h 64% 0.00 mm 105.35 W/m2
17:09 31.0 °C 24.0 °C 1012.2 hPa SE 15 km/h 16 km/h 64% 0.00 mm 93.52 W/m2
17:14 31.0 °C 24.0 °C 1012.2 hPa SSE 12 km/h 16 km/h 64% 0.00 mm 83.54 W/m2
17:19 31.0 °C 23.0 °C 1012.2 hPa SSE 12 km/h 16 km/h 64% 0.00 mm 74.26 W/m2
17:24 31.0 °C 24.0 °C 1012.2 hPa SE 14 km/h 16 km/h 65% 0.00 mm 64.12 W/m2
17:29 31.0 °C 24.0 °C 1012.2 hPa SE 14 km/h 20 km/h 65% 0.00 mm 55.73 W/m2
17:34 31.0 °C 24.0 °C 1012.2 hPa SE 12 km/h 16 km/h 65% 0.00 mm 47.44 W/m2
17:39 31.0 °C 23.0 °C 1012.5 hPa SE 15 km/h 16 km/h 66% 0.00 mm 35.79 W/m2
17:44 31.0 °C 24.0 °C 1012.5 hPa SE 14 km/h 16 km/h 66% 0.00 mm 28.24 W/m2
17:49 31.0 °C 24.0 °C 1012.5 hPa SSE 13 km/h 16 km/h 66% 0.00 mm 20.87 W/m2
17:54 31.0 °C 24.0 °C 1012.5 hPa SE 15 km/h 16 km/h 66% 0.00 mm 12.74 W/m2
17:59 30.0 °C 24.0 °C 1012.5 hPa SSE 14 km/h 16 km/h 67% 0.00 mm 6.63 W/m2
18:04 30.0 °C 24.0 °C 1012.5 hPa SE 13 km/h 16 km/h 67% 0.00 mm 2.14 W/m2
18:09 30.0 °C 24.0 °C 1012.5 hPa SSE 12 km/h 12 km/h 67% 0.00 mm 0.00 W/m2
18:14 30.0 °C 24.0 °C 1012.9 hPa SE 6 km/h 12 km/h 68% 0.00 mm 0.00 W/m2
18:19 30.0 °C 24.0 °C 1012.5 hPa SE 10 km/h 12 km/h 68% 0.00 mm 0.00 W/m2
18:24 30.0 °C 24.0 °C 1012.9 hPa SE 16 km/h 24 km/h 69% 0.00 mm 0.00 W/m2
18:29 30.0 °C 24.0 °C 1012.9 hPa SE 11 km/h 16 km/h 69% 0.00 mm 0.00 W/m2
18:34 30.0 °C 24.0 °C 1012.9 hPa SE 6 km/h 8 km/h 69% 0.00 mm 0.00 W/m2
18:39 30.0 °C 24.0 °C 1012.9 hPa SE 8 km/h 8 km/h 69% 0.00 mm 0.00 W/m2
18:44 30.0 °C 24.0 °C 1013.2 hPa SSE 14 km/h 16 km/h 70% 0.00 mm 0.00 W/m2
18:49 30.0 °C 24.0 °C 1013.2 hPa SE 12 km/h 12 km/h 70% 0.00 mm 0.00 W/m2
18:54 30.0 °C 24.0 °C 1013.2 hPa ESE 12 km/h 12 km/h 70% 0.00 mm 0.00 W/m2
18:59 30.0 °C 24.0 °C 1013.2 hPa SE 14 km/h 16 km/h 71% 0.00 mm 0.00 W/m2
19:04 30.0 °C 24.0 °C 1013.2 hPa SSE 14 km/h 24 km/h 71% 0.00 mm 0.00 W/m2
19:09 30.0 °C 24.0 °C 1013.2 hPa SE 10 km/h 12 km/h 72% 0.00 mm 0.00 W/m2
19:14 29.0 °C 24.0 °C 1013.2 hPa SE 8 km/h 12 km/h 72% 0.00 mm 0.00 W/m2
19:19 29.0 °C 24.0 °C 1013.6 hPa ESE 5 km/h 8 km/h 73% 0.00 mm 0.00 W/m2
19:24 29.0 °C 24.0 °C 1013.6 hPa SE 12 km/h 12 km/h 73% 0.00 mm 0.00 W/m2
19:29 29.0 °C 24.0 °C 1013.6 hPa SE 10 km/h 12 km/h 74% 0.00 mm 0.00 W/m2
19:34 29.0 °C 24.0 °C 1013.6 hPa SE 9 km/h 12 km/h 74% 0.00 mm 0.00 W/m2
19:39 29.0 °C 24.0 °C 1013.9 hPa SE 5 km/h 12 km/h 75% 0.00 mm 0.00 W/m2
19:44 29.0 °C 24.0 °C 1013.9 hPa ESE 5 km/h 12 km/h 75% 0.00 mm 0.00 W/m2
19:49 29.0 °C 24.0 °C 1014.2 hPa SE 3 km/h 8 km/h 75% 0.00 mm 0.00 W/m2
19:54 29.0 °C 24.0 °C 1014.2 hPa SE 3 km/h 4 km/h 75% 0.00 mm 0.00 W/m2
19:59 29.0 °C 24.0 °C 1014.2 hPa NE 5 km/h 12 km/h 75% 0.00 mm 0.00 W/m2
20:04 29.0 °C 24.0 °C 1012.5 hPa NNE 3 km/h 4 km/h 75% 0.00 mm 0.00 W/m2
20:09 29.0 °C 24.0 °C 1012.5 hPa North 10 km/h 12 km/h 75% 0.00 mm 0.00 W/m2
20:14 29.0 °C 24.0 °C 1012.5 hPa North 10 km/h 12 km/h 74% 0.00 mm 0.00 W/m2
20:19 28.0 °C 24.0 °C 1012.5 hPa North 9 km/h 12 km/h 75% 0.00 mm 0.00 W/m2
20:24 28.0 °C 24.0 °C 1012.9 hPa North 8 km/h 8 km/h 75% 0.00 mm 0.00 W/m2
20:29 28.0 °C 24.0 °C 1012.5 hPa North 9 km/h 12 km/h 75% 0.00 mm 0.00 W/m2
20:34 28.0 °C 24.0 °C 1012.5 hPa NNE 7 km/h 8 km/h 75% 0.00 mm 0.00 W/m2
20:39 28.0 °C 24.0 °C 1012.5 hPa NNE 8 km/h 8 km/h 76% 0.00 mm 0.00 W/m2
20:44 28.0 °C 24.0 °C 1012.5 hPa NNE 7 km/h 8 km/h 76% 0.00 mm 0.00 W/m2
20:49 28.0 °C 23.0 °C 1012.5 hPa NNW 3 km/h 4 km/h 75% 0.00 mm 0.00 W/m2
20:54 28.0 °C 23.0 °C 1012.5 hPa NE 8 km/h 12 km/h 75% 0.00 mm 0.00 W/m2
20:59 28.0 °C 23.0 °C 1012.5 hPa NE 9 km/h 12 km/h 74% 0.00 mm 0.00 W/m2
21:04 28.0 °C 23.0 °C 1012.5 hPa NE 4 km/h 4 km/h 74% 0.00 mm 0.00 W/m2
21:09 28.0 °C 23.0 °C 1012.9 hPa NE 4 km/h 8 km/h 74% 0.00 mm 0.00 W/m2
21:14 28.0 °C 23.0 °C 1012.9 hPa NNE 9 km/h 12 km/h 74% 0.00 mm 0.00 W/m2
21:19 28.0 °C 23.0 °C 1012.9 hPa NNE 7 km/h 8 km/h 74% 0.00 mm 0.00 W/m2
21:24 28.0 °C 23.0 °C 1012.9 hPa NNE 14 km/h 16 km/h 73% 0.00 mm 0.00 W/m2
21:29 28.0 °C 23.0 °C 1013.2 hPa NE 12 km/h 12 km/h 73% 0.00 mm 0.00 W/m2
21:34 28.0 °C 23.0 °C 1013.2 hPa NNE 10 km/h 12 km/h 73% 0.00 mm 0.00 W/m2
21:39 28.0 °C 23.0 °C 1012.9 hPa NNE 10 km/h 12 km/h 73% 0.00 mm 0.00 W/m2
21:44 28.0 °C 23.0 °C 1012.9 hPa NNE 11 km/h 16 km/h 73% 0.00 mm 0.00 W/m2
21:49 28.0 °C 22.0 °C 1012.9 hPa NE 9 km/h 12 km/h 73% 0.00 mm 0.00 W/m2
21:54 28.0 °C 22.0 °C 1012.9 hPa NNE 10 km/h 12 km/h 73% 0.00 mm 0.00 W/m2
21:59 28.0 °C 22.0 °C 1013.2 hPa NE 6 km/h 8 km/h 73% 0.00 mm 0.00 W/m2
22:04 28.0 °C 23.0 °C 1013.2 hPa NNE 7 km/h 8 km/h 74% 0.00 mm 0.00 W/m2
22:09 28.0 °C 22.0 °C 1014.2 hPa ENE 4 km/h 8 km/h 73% 0.00 mm 0.00 W/m2
22:14 28.0 °C 22.0 °C 1014.2 hPa NE 7 km/h 8 km/h 73% 0.00 mm 0.00 W/m2
22:19 28.0 °C 22.0 °C 1014.2 hPa NNE 9 km/h 12 km/h 73% 0.00 mm 0.00 W/m2
22:24 28.0 °C 22.0 °C 1014.2 hPa NNE 8 km/h 12 km/h 72% 0.00 mm 0.00 W/m2
22:29 28.0 °C 22.0 °C 1014.6 hPa NNW 12 km/h 16 km/h 74% 0.00 mm 0.00 W/m2
22:34 27.0 °C 22.0 °C 1014.6 hPa North 12 km/h 16 km/h 74% 0.00 mm 0.00 W/m2
22:39 27.0 °C 23.0 °C 1014.6 hPa North 14 km/h 16 km/h 76% 0.00 mm 0.00 W/m2
22:44 27.0 °C 23.0 °C 1014.6 hPa NNW 12 km/h 16 km/h 76% 0.00 mm 0.00 W/m2
22:49 27.0 °C 23.0 °C 1014.6 hPa North 13 km/h 16 km/h 77% 0.00 mm 0.00 W/m2
22:54 27.0 °C 23.0 °C 1014.6 hPa North 11 km/h 12 km/h 77% 0.00 mm 0.00 W/m2
22:59 27.0 °C 23.0 °C 1014.6 hPa North 10 km/h 12 km/h 78% 0.00 mm 0.00 W/m2
23:04 27.0 °C 22.0 °C 1014.6 hPa NNW 13 km/h 16 km/h 78% 0.00 mm 0.00 W/m2
23:09 26.0 °C 22.0 °C 1014.6 hPa NNW 8 km/h 12 km/h 78% 0.00 mm 0.00 W/m2
23:14 26.0 °C 22.0 °C 1014.2 hPa North 6 km/h 8 km/h 77% 0.00 mm 0.00 W/m2
23:19 26.0 °C 22.0 °C 1014.2 hPa NNE 9 km/h 12 km/h 77% 0.00 mm 0.00 W/m2
23:24 26.0 °C 22.0 °C 1014.6 hPa North 11 km/h 12 km/h 77% 0.00 mm 0.00 W/m2
23:29 26.0 °C 22.0 °C 1014.6 hPa NNE 9 km/h 12 km/h 76% 0.00 mm 0.00 W/m2
23:34 26.0 °C 22.0 °C 1014.2 hPa North 10 km/h 12 km/h 76% 0.00 mm 0.00 W/m2
23:39 26.0 °C 22.0 °C 1014.2 hPa North 13 km/h 16 km/h 76% 0.00 mm 0.00 W/m2
23:44 26.0 °C 22.0 °C 1014.2 hPa NNE 12 km/h 16 km/h 76% 0.00 mm 0.00 W/m2
23:49 26.0 °C 22.0 °C 1014.2 hPa NNE 11 km/h 16 km/h 76% 0.00 mm 0.00 W/m2
23:54 26.0 °C 22.0 °C 1014.2 hPa NNE 12 km/h 12 km/h 76% 0.00 mm 0.00 W/m2
23:59 26.0 °C 22.0 °C 1014.2 hPa NNE 7 km/h 12 km/h 76% 0.00 mm 0.00 W/m2
PIMOHWEATHER Philippines
Compliments of Weather Underground - 2 mb